Showing default

KUIPER-00386, 68921

Orbit data source: Space-Track

KUIPER-00386, 68921 is a payload satellite owned by Kuiper Systems (US) in LEO that was launched on Thu, 30 Apr 2026 UTC via an ARIANE 64 launch vehicle from the French Guiana (FRGUI). Payload-class satellites include a variety of spacecraft equipped with specific instruments for various scientific and technological missions. These include communications satellites like Starlink; space stations such as the ISS; scientific satellites like the Hubble; Earth observation satellites from companies like Planet Labs, Umbra, and HawkEye 360; GPS; miniature CubeSats for education and research; and military/defense satellites.

Loading next visibility...
Identifier
68921, 2026-098C
Orbit
LEO
Country
Flag of USUS
Related business
Manufacturer
Kuiper Systems
Mission
Operational spacecraft
Bus & Motor
KUIPER, Unknown motor
Mass
~490 kg wet, ~490 kg dry
Launch date (UTC)
2026-04-30 (1 month ago)
Launch vehicle
ARIANE 64
Launch site
French Guiana (FRGUI)
Object type
Payload
Rocket body
Debris
Shape & HBR
Unknown
Radar Cross Section
Large (>1 m²)

Expand to show TLE details & history
Last TLE update: 11 hours ago

TLE from 11 hours ago
0 KUIPER-00386
1 68921U 26098C   26150.66668980 -.00015160  00000-0 -42287-3 0  9995
2 68921  51.8710 152.0057 0003473  99.2877  56.7399 15.35482422  4525
Epoch: 2026-05-30T16:00Z
TLE epoch observation values (Epoch: 2026-05-30T16:00:01.998Z)
Latitude
18.65091°
Longitude
-171.45765°
Altitude
458.416 km
Speed
7.641 km/s
True Right ascension
21h 06m 55s
True Declination
18° 32' 33"
Sunlit
Object was in daylight at epoch
Visualization orbit readout
Latitude
Unknown
Longitude
Unknown
Altitude
Unknown
Speed
Unknown
Apparent Right ascension
Unknown
Apparent Declination
Unknown
Sunlit
N/A
Visualization observer readout
Local Sidereal Time
12:22:59
Azimuth
Unknown
Elevation
Unknown
Doppler factor
Unknown
Orbital elements
Apogee altitude
462.33 km
Perigee altitude
457.58 km
Semi-major axis
6,838.092 km
Eccentricity
0.00035
Inclination
51.871°
RAAN
152.0057°
Arg. of periapsis
99.2877°
True anomaly
56.77319°
Mean anomaly
56.7399°
Eccentric anomaly
56.75654°
Mean motion
3.83832 °/min
Orbital period
93.79 mins
BSTAR
-0.00042287
Loading maneuver chart data...
Computing Atmospheric mass density...
Loading historical data...
Loading historical data...
Loading historical data...
Loading historical data...
Loading historical data...
Loading historical data...
Loading historical data...

Documentation

Showing up to 5 results
|